Regional Weather Roundup
Issued by NWS

Home | Current Version | Previous Version | Text Only | Print | Product List | Glossary On
Versions: 1 2 3 4 5 6 7 8 9 10 11 12 13 14 15 16 17 18 19 20 21 22 23 24 25 26 27 28 29 30 31 32 33 34 35 36 37 38 39 40 41 42 43 44 45 46 47 48 49 50
000
ASUS44 KLUB 191510
RWRTX
WEST TEXAS WEATHER ROUNDUP
NATIONAL WEATHER SERVICE LUBBOCK TX
1000 AM CDT FRI SEP 19 2014

NOTE: "FAIR" INDICATES FEW OR NO CLOUDS BELOW 12,000 FEET WITH NO
SIGNIFICANT WEATHER AND/OR OBSTRUCTIONS TO VISIBILITY.

TXZ004-006>008-010-012-014-016-OKZ002-191600-
TEXAS PANHANDLE/OKLAHOMA PANHANDLE

CITY           SKY/WX    TMP DP  RH WIND       PRES   REMARKS
AMARILLO       CLOUDY    67  64  90 S9        30.07R
BORGER         SUNNY     71  62  73 S9G16     30.05R
CANADIAN       CLOUDY    73  68  84 S6        30.02S
DALHART        CLOUDY    68  62  81 S10       30.07R
DUMAS          CLOUDY    65  64  94 S12       30.06S
GUYMON         SUNNY     73  63  70 S14       30.01S
HEREFORD       PTSUNNY   68  67  98 SE6       30.07S
PAMPA          MOSUNNY   70  62  77 S13       30.06S
PERRYTON       SUNNY     72  63  72 S10       30.03S
$$

TXZ026-029-035-045-048-191600-
SOUTHERN PANHANDLE/SOUTH PLAINS/ROLLING PLAINS

CITY           SKY/WX    TMP DP  RH WIND       PRES   REMARKS
CHILDRESS      FOG       71  70  96 E6        30.02R VSB 3/4
SEMINOLE       RAIN      67  67  99 SE7       30.04R
LUBBOCK        CLOUDY    67  65  93 SE12      30.04R FOG
PLAINVIEW      CLOUDY    70  68  92 SE6       30.04S
SNYDER         CLOUDY    69  68  98 E6        30.01F
$$

TXZ052-054-060>062-072-078-127-140-154-169-191600-
PERMIAN BASIN/CONCHO VALLEY/BIG COUNTRY/EDWARDS PLATEAU

CITY           SKY/WX    TMP DP  RH WIND       PRES   REMARKS
ABILENE        PTSUNNY   73  67  81 E8        30.00R
BIG SPRING     CLOUDY    74  69  85 E8        30.03R
BRADY          CLOUDY    72  72 100 E6        29.97R
BROWNWOOD      CLOUDY    73  70  88 E7        29.98R
JUNCTION       CLOUDY    76  70  82 E6        29.96S
MIDLAND        LGT RAIN  69  67  93 SE7       30.01R FOG
ODESSA         RAIN      68  66  93 E7        30.01S FOG
SAN ANGELO     CLOUDY    71  69  93 E8        29.98R
SONORA         CLOUDY    73  72  94 E5        30.02R FOG
SWEETWATER     CLOUDY    70  70 100 NE5       30.04S
$$

TXZ055-058-074-075-080-082-191600-
FAR WEST/SOUTHWEST MOUNTAINS/TRANS PECOS

CITY           SKY/WX    TMP DP  RH WIND       PRES   REMARKS
ALPINE         PTSUNNY   67  64  92 S3        30.12S
DRYDEN           N/A     78  71  79 E3        29.93R
EL PASO        PTSUNNY   68  64  87 S3        30.00S
FORT STOCKTON  CLOUDY    70  68  93 SE7       29.99S
GUADALUPE PASS FOG       64  63  96 SW8       30.16R VSB 1/4
MARFA          MOSUNNY   68  64  88 SE6       30.11R
PECOS          RAIN      69  68  94 NE7       29.97S
PRESIDIO       FAIR      78  65  63 E3        29.96S
$$

TXZ014-016-019-021>030-083-191600
TEXAS TECH WEST TEXAS MESONET/TEXAS PANHANDLE/NORTHERN SOUTH PLAINS

CITY           SKY/WX    TMP DP  RH WIND       PRES   REMARKS
ABERNATHY 5ENE   N/A     66  64  94 E9        30.06S
AMARILLO 9NNE    N/A     70  64  81 S13       30.05S
AMARILLO 7SSE    N/A     68  64  87 S8        30.08S
AMHERST 1NE      N/A     65  64  97 E8        30.06R
BOOTLEG 11WNW    N/A     64  63  95 S5        30.11S
CANADIAN 6E      N/A     73  68  84 S7        30.02S
CAPROCK CYN SP   N/A     71  67  88 E2        30.04S
CHILDRESS 2NNE   N/A     70  69  96 SE5       30.01R
CLARENDON 2WSW   N/A     71  64  76 S5        30.05R
CLAUDE 12SW      N/A     67  64  91 S7        30.07R
DIMMITT 2NE    RAIN      65  64  97 SE7       30.07S
FLOYDADA 2NNE    N/A     67  66  97 E8        30.05R
FRIONA 2NE       N/A     65  64  94 SE6       30.08S
GOODLETT 3W      N/A     69  67  92 E5        30.00R
HART 3N          N/A     65  65  97 E6        30.06S
HEREFORD 2NW     N/A     67  65  93 SE5       30.07S
MCLEAN 1E        N/A     70  67  88 SE7       30.04R
MEMPHIS 1NE      N/A     74  68  82 NE6       30.02R
MULESHOE 2SSW    N/A     66  65  97 SE6       30.05S
OLTON 6S         N/A     66  64  94 E5        30.05S
PALO DURO SP     N/A     67  64  90 SE7       30.08S
PAMPA 2E         N/A     67  64  91 SE8       30.05S
PLAINVIEW 1S     N/A     67  65  94 E8        30.05S
SILVERTON 7ESE   N/A     69  65  86 SE8       30.06S
TULIA 2ENE       N/A     66  65  97 SE7       30.06S
TURKEY 2WSW      N/A     71  67  86 E5        30.03R
UMBARGER 3NNE    N/A     66  64  94 SE8       30.08R
$$

TXZ033>036-039>041-045>048-191600
TEXAS TECH WEST TEXAS MESONET/SOUTH PLAINS

CITY           SKY/WX    TMP DP  RH WIND       PRES   REMARKS
AIKEN 3WSW       N/A     68  66  92 SE9       30.07R
ANTON 6SSW       N/A     66  64  94 E10       30.04S
BROWNFIELD 2S    N/A     66  65  96 SE9       30.03S
DENVR CTY 7WNW   N/A     66  64  94 SE10      30.03R
GAIL 2ESE        N/A     69  67  92 E6        30.01S
LAMESA 2SE       N/A     68  66  95 SE6       30.03R
LEVELLAND 4S     N/A     66  64  94 E8        30.04S
LUBBOCK 3WNW     N/A     67  64  89 SE9       30.05R
MORTON 1ENE      N/A     66  65  97 E8        30.05R
ODONNELL 1N      N/A     67  64  93 E8        30.03S
PLAINS 3N      LGT RAIN  66  65  96 SE9       30.03S
RALLS 1SE        N/A     67  66  97 SE9       30.06R
REESE CENTER     N/A     66  64  95 SE10      30.05R
SEAGRAVES 1SW    N/A     67  66  97 SE9       30.02S
SEMINOLE 2NNE    N/A     67  66  95 E10       30.02S
SLATON 2NE     RAIN      66  65  97 E8        30.05R
SNYDER 3E        N/A     68  67  98 NE6       30.00S
SUNDOWN 8SW      N/A     67  65  96 E8        30.04R
TAHOKA 3NNE      N/A     67  65  94 E6        30.04R
WOLFFORTH 6SSW   N/A     66  66  97 E10       30.04S
$$

TXZ031-032-036>038-042>044-191600-
TEXAS TECH WEST TEXAS MESONET/ROLLING PLAINS

CITY           SKY/WX    TMP DP  RH WIND       PRES   REMARKS
ASPERMONT 3NE    N/A     72  71  96 E2        30.00S
FLUVANNA 3WNW    N/A     68  66  93 E5        30.02S
GRAHAM 5SSW    LGT RAIN  67  65  95 E9        30.03R
GUTHRIE 10WSW    N/A     72  69  90 SE5       30.01R
HASKELL 1NW      N/A     72  70  93 SE5       29.99S
JAYTON 1SSE      N/A     71  69  95 E5        30.00F
KNOX CITY 3NW    N/A     72  68  89 SE6       29.99S
LK A HENRY 1NW   N/A     70  67  92 E3        30.01S
NORTHFIELD 1S    N/A     70  69  97 E3        30.01S
ODELL 4ENE       N/A     71  71 100 SE6       30.00R
PADUCAH 10SW     N/A     70  69  95 E6        30.01S
POST 1NE         N/A     67  70 100 E8        30.02S
RRING SPRGS 3N   N/A     69  69  98 E5        30.04R
SEYMOUR 3NW      N/A     75  69  80 S5        29.98S
SPUR 1W          N/A     69  67  93 SE2       30.02S
WEINERT 2NNE     N/A     71  71  98 CALM      29.99S
WHITE RVR 6NE    N/A     67  66  96 E5        30.03S
$$

TXZ052-054-060>062-072-078-127-140-154-169-191600-
TEXAS TECH WEST TEXAS MESONET/PERMIAN BASIN/
CONCHO VALLEY/BIG COUNTRY/EDWARDS PLATEAU

CITY           SKY/WX    TMP DP  RH WIND       PRES   REMARKS
COYANOSA 2N      N/A     70  69  98 E10       29.98R
JUNCTION 1SSW    N/A     77  71  81 W2        29.97R
MERTZON 3NNE     N/A     69  68  96 NE5       30.00R
SAN ANGELO 7NW   N/A     70  67  90 E8        29.99R
STRLNG CT 4WSW   N/A     70  68  92 E7        30.01S
ST LAWRNCE 5SW   N/A     69  68  98 E6        30.00S
SWEETWATR 11SW   N/A     69  68  98 E8        30.02R
WALL 1E          N/A     69  66  92 E7        29.99R
$$

TXZ055-058-074-075-080-082-191600-
TEXAS TECH WEST TEXAS MESONET/FAR WEST/SOUTHWEST MOUNTAINS/TRANS PECOS

CITY           SKY/WX    TMP DP  RH WIND       PRES   REMARKS
PRSMN GAP BBNP   N/A     74  69  86 N2        29.98R
$$



USA.gov is the U.S. government's official web portal to all federal, state and local government web resources and services.